TimeCST,TemperatureF,Dew PointF,Humidity,Sea Level PressureIn,VisibilityMPH,Wind Direction,Wind SpeedMPH,Gust SpeedMPH,PrecipitationIn,Events,Conditions,WindDirDegrees,DateUTC
12:15 AM,65.3,63.5,94,30.18,10.0,SE,3.5,-,N/A,,Clear,130,2012-11-21 06:15:00
12:35 AM,65.3,63.3,93,30.18,7.0,SE,3.5,-,N/A,,Clear,140,2012-11-21 06:35:00
12:55 AM,64.6,62.8,94,30.18,4.0,SE,3.5,-,N/A,,Clear,140,2012-11-21 06:55:00
1:15 AM,64.4,62.6,94,30.18,0.8,SE,3.5,-,N/A,,Mist,130,2012-11-21 07:15:00
1:35 AM,64.2,62.6,94,30.18,0.2,ESE,3.5,-,N/A,Fog,Fog,120,2012-11-21 07:35:00
1:55 AM,64.2,62.8,95,30.18,0.5,Calm,Calm,-,N/A,Fog,Fog,0,2012-11-21 07:55:00
2:15 AM,62.2,60.8,95,30.18,0.8,Calm,Calm,-,N/A,,Mist,0,2012-11-21 08:15:00
2:35 AM,62.1,60.6,95,30.18,1.8,Calm,Calm,-,N/A,,Mist,0,2012-11-21 08:35:00
2:55 AM,63.0,61.5,95,30.18,10.0,Calm,Calm,-,N/A,,Clear,0,2012-11-21 08:55:00
3:15 AM,62.1,60.6,95,30.18,4.0,Calm,Calm,-,N/A,,Clear,0,2012-11-21 09:15:00
3:35 AM,60.6,59.2,95,30.18,0.2,Calm,Calm,-,N/A,Fog,Fog,0,2012-11-21 09:35:00
3:55 AM,61.0,59.5,95,30.18,0.2,Calm,Calm,-,N/A,Fog,Fog,0,2012-11-21 09:55:00
4:15 AM,60.4,59.0,95,30.18,0.5,NNE,3.5,-,N/A,Fog,Fog,20,2012-11-21 10:15:00
4:35 AM,60.6,59.4,96,30.18,0.5,North,3.5,-,N/A,Fog,Fog,360,2012-11-21 10:35:00
4:55 AM,59.5,58.3,96,30.18,0.2,Calm,Calm,-,N/A,Fog,Fog,0,2012-11-21 10:55:00
5:15 AM,59.2,57.9,96,30.18,0.2,North,3.5,-,N/A,Fog,Fog,360,2012-11-21 11:15:00
5:35 AM,58.8,57.6,96,30.19,0.2,Calm,Calm,-,N/A,Fog,Fog,0,2012-11-21 11:35:00
5:55 AM,58.1,56.8,96,30.19,0.2,North,3.5,-,N/A,Fog,Fog,360,2012-11-21 11:55:00
6:15 AM,57.2,55.9,96,30.20,0.2,NNW,3.5,-,N/A,Fog,Fog,330,2012-11-21 12:15:00
6:35 AM,56.7,55.4,96,30.20,0.2,Calm,Calm,-,N/A,Fog,Fog,0,2012-11-21 12:35:00
6:55 AM,56.5,55.4,96,30.21,0.2,North,4.6,-,N/A,Fog,Fog,350,2012-11-21 12:55:00
7:15 AM,56.3,55.2,96,30.21,0.2,North,3.5,-,N/A,Fog,Fog,360,2012-11-21 13:15:00
7:35 AM,57.0,55.8,96,30.22,0.2,Calm,Calm,-,N/A,Fog,Fog,0,2012-11-21 13:35:00
7:55 AM,58.3,57.0,96,30.23,0.2,North,3.5,-,N/A,Fog,Fog,10,2012-11-21 13:55:00
8:15 AM,60.3,59.0,96,30.23,0.5,NNE,3.5,-,N/A,Fog,Fog,20,2012-11-21 14:15:00
8:35 AM,63.1,61.9,96,30.24,5.0,Calm,Calm,-,N/A,,Clear,0,2012-11-21 14:35:00
8:55 AM,66.4,64.9,95,30.24,7.0,Calm,Calm,-,N/A,,Clear,0,2012-11-21 14:55:00
9:15 AM,68.2,66.7,95,30.25,10.0,Calm,Calm,-,N/A,,Clear,0,2012-11-21 15:15:00
9:35 AM,70.2,68.5,95,30.25,10.0,Calm,Calm,-,N/A,,Clear,0,2012-11-21 15:35:00
9:55 AM,72.5,67.6,85,30.25,10.0,NE,4.6,-,N/A,,Clear,50,2012-11-21 15:55:00
10:15 AM,74.8,66.4,75,30.25,10.0,East,6.9,-,N/A,,Clear,90,2012-11-21 16:15:00
10:35 AM,77.2,64.2,64,30.25,10.0,East,5.8,-,N/A,,Clear,100,2012-11-21 16:35:00
10:55 AM,77.9,63.0,60,30.25,10.0,East,8.1,-,N/A,,Clear,80,2012-11-21 16:55:00
11:15 AM,78.8,62.4,57,30.24,10.0,East,6.9,-,N/A,,Clear,90,2012-11-21 17:15:00
11:35 AM,79.0,62.2,56,30.24,10.0,East,8.1,-,N/A,,Clear,90,2012-11-21 17:35:00
11:55 AM,79.0,61.5,55,30.23,10.0,ESE,10.4,-,N/A,,Clear,110,2012-11-21 17:55:00
12:15 PM,78.4,60.8,55,30.22,10.0,East,9.2,-,N/A,,Clear,90,2012-11-21 18:15:00
12:35 PM,79.2,61.0,54,30.21,10.0,East,10.4,-,N/A,,Clear,80,2012-11-21 18:35:00
12:55 PM,79.3,60.3,52,30.20,10.0,East,9.2,-,N/A,,Clear,100,2012-11-21 18:55:00
1:15 PM,79.5,60.6,52,30.19,10.0,East,11.5,-,N/A,,Clear,100,2012-11-21 19:15:00
1:35 PM,79.5,60.8,53,30.19,10.0,ESE,12.7,17.3,N/A,,Clear,110,2012-11-21 19:35:00
1:55 PM,77.7,60.8,56,30.18,10.0,ESE,12.7,-,N/A,,Clear,120,2012-11-21 19:55:00
2:15 PM,78.6,60.3,53,30.17,10.0,ESE,12.7,18.4,N/A,,Clear,110,2012-11-21 20:15:00
2:35 PM,78.8,58.3,49,30.17,10.0,ESE,10.4,-,N/A,,Clear,110,2012-11-21 20:35:00
2:55 PM,78.8,57.4,48,30.17,10.0,ESE,12.7,-,N/A,,Clear,120,2012-11-21 20:55:00
3:15 PM,78.3,57.2,48,30.17,10.0,East,11.5,-,N/A,,Clear,80,2012-11-21 21:15:00
3:35 PM,78.1,57.4,49,30.16,10.0,East,10.4,-,N/A,,Clear,100,2012-11-21 21:35:00
3:55 PM,77.0,57.4,51,30.16,10.0,East,12.7,-,N/A,,Clear,90,2012-11-21 21:55:00
4:15 PM,76.5,58.1,53,30.16,10.0,East,10.4,-,N/A,,Clear,90,2012-11-21 22:15:00
4:35 PM,75.6,58.5,55,30.16,10.0,East,10.4,-,N/A,,Clear,100,2012-11-21 22:35:00
4:55 PM,74.5,59.4,59,30.16,10.0,East,10.4,-,N/A,,Clear,100,2012-11-21 22:55:00
5:15 PM,72.9,59.9,64,30.17,10.0,East,8.1,-,N/A,,Clear,100,2012-11-21 23:15:00
5:35 PM,71.2,60.1,68,30.17,10.0,East,5.8,-,N/A,,Clear,90,2012-11-21 23:35:00
5:55 PM,69.3,60.4,73,30.17,10.0,East,4.6,-,N/A,,Clear,90,2012-11-21 23:55:00
6:15 PM,68.2,60.8,77,30.18,10.0,East,3.5,-,N/A,,Clear,100,2012-11-22 00:15:00
6:35 PM,66.9,60.4,80,30.18,10.0,Calm,Calm,-,N/A,,Clear,0,2012-11-22 00:35:00
6:55 PM,65.1,59.9,83,30.18,10.0,Calm,Calm,-,N/A,,Clear,0,2012-11-22 00:55:00
7:15 PM,64.8,59.5,83,30.19,10.0,Calm,Calm,-,N/A,,Clear,0,2012-11-22 01:15:00
7:35 PM,64.0,59.0,84,30.19,10.0,Calm,Calm,-,N/A,,Clear,0,2012-11-22 01:35:00
7:55 PM,63.7,59.0,85,30.19,10.0,North,3.5,-,N/A,,Clear,360,2012-11-22 01:55:00
8:15 PM,62.8,58.5,86,30.20,10.0,NNE,4.6,-,N/A,,Clear,30,2012-11-22 02:15:00
8:35 PM,62.4,58.6,87,30.19,10.0,NE,4.6,-,N/A,,Clear,40,2012-11-22 02:35:00
8:55 PM,63.9,60.4,89,30.19,10.0,ENE,4.6,-,N/A,,Clear,60,2012-11-22 02:55:00
9:15 PM,64.0,61.0,90,30.19,10.0,ENE,4.6,-,N/A,,Clear,70,2012-11-22 03:15:00
9:35 PM,63.5,60.8,91,30.19,10.0,East,3.5,-,N/A,,Clear,80,2012-11-22 03:35:00
9:55 PM,63.3,61.0,92,30.19,10.0,East,3.5,-,N/A,,Clear,90,2012-11-22 03:55:00
10:15 PM,62.4,60.1,92,30.19,4.0,Calm,Calm,-,N/A,,Clear,0,2012-11-22 04:15:00
10:35 PM,59.9,57.9,93,30.19,1.0,Calm,Calm,-,N/A,,Mist,0,2012-11-22 04:35:00
10:55 PM,60.1,58.5,94,30.18,0.5,Calm,Calm,-,N/A,Fog,Fog,0,2012-11-22 04:55:00
11:15 PM,60.1,58.6,95,30.18,0.2,Calm,Calm,-,N/A,Fog,Fog,0,2012-11-22 05:15:00
11:35 PM,61.0,59.7,96,30.18,0.2,Calm,Calm,-,N/A,Fog,Fog,0,2012-11-22 05:35:00
11:55 PM,60.3,58.8,95,30.17,1.0,ESE,3.5,-,N/A,,Mist,120,2012-11-22 05:55:00